TimeEST,TemperatureF,Dew PointF,Humidity,Sea Level PressureIn,VisibilityMPH,Wind Direction,Wind SpeedMPH,Gust SpeedMPH,PrecipitationIn,Events,Conditions,WindDirDegrees,DateUTC
12:15 AM,44.8,43.0,93,30.16,2.0,NE,3.5,-,N/A,Rain,Light Rain,50,2013-01-15 05:15:00
12:35 AM,44.1,42.6,95,30.16,1.5,Calm,Calm,-,N/A,,Drizzle,0,2013-01-15 05:35:00
12:55 AM,44.1,42.4,94,30.15,1.0,Calm,Calm,-,N/A,Rain,Light Rain,0,2013-01-15 05:55:00
1:15 AM,43.9,42.4,95,30.15,1.2,Calm,Calm,-,N/A,Rain,Rain,0,2013-01-15 06:15:00
1:55 AM,43.7,42.3,95,30.16,4.0,ENE,3.5,-,N/A,Rain,Rain,70,2013-01-15 06:55:00
2:15 AM,43.7,42.3,95,30.16,1.0,Calm,Calm,-,0.01,Rain,Light Rain,0,2013-01-15 07:15:00
2:35 AM,43.7,42.1,94,30.15,3.0,Calm,Calm,-,0.02,Rain,Rain,0,2013-01-15 07:35:00
2:55 AM,43.7,42.3,95,30.14,7.0,Calm,Calm,-,0.03,Rain,Light Rain,0,2013-01-15 07:55:00
3:15 AM,43.7,42.3,95,30.14,2.0,Calm,Calm,-,N/A,Rain,Light Rain,0,2013-01-15 08:15:00
3:35 AM,43.7,42.1,94,30.13,0.8,Calm,Calm,-,N/A,Rain,Rain,0,2013-01-15 08:35:00
3:55 AM,43.7,42.1,94,30.11,0.8,Calm,Calm,-,0.03,Rain,Heavy Rain,0,2013-01-15 08:55:00
4:15 AM,43.7,42.3,95,30.11,0.5,Calm,Calm,-,0.01,Rain,Rain,0,2013-01-15 09:15:00
4:35 AM,44.1,42.8,95,30.11,1.8,Calm,Calm,-,0.03,Rain,Rain,0,2013-01-15 09:35:00
4:55 AM,44.6,43.2,95,30.11,1.0,Calm,Calm,-,0.05,Rain,Rain,0,2013-01-15 09:55:00
5:15 AM,44.8,43.3,95,30.11,1.5,Calm,Calm,-,0.01,Rain,Rain,0,2013-01-15 10:15:00
5:35 AM,44.8,43.3,95,30.11,1.0,Calm,Calm,-,0.02,Rain,Rain,0,2013-01-15 10:35:00
5:55 AM,44.6,43.2,95,30.10,0.8,SE,3.5,-,0.06,Rain,Rain,140,2013-01-15 10:55:00
6:15 AM,43.9,42.4,95,30.10,2.5,Calm,Calm,-,N/A,Rain,Light Rain,0,2013-01-15 11:15:00
6:35 AM,43.9,42.4,95,30.13,4.0,West,3.5,-,0.03,Rain,Rain,260,2013-01-15 11:35:00
6:55 AM,44.1,42.6,95,30.14,1.8,Calm,Calm,-,0.12,Rain,Light Rain,0,2013-01-15 11:55:00
7:15 AM,43.9,42.6,95,30.15,7.0,Calm,Calm,-,0.03,Rain,Rain,0,2013-01-15 12:15:00
7:35 AM,44.1,42.8,95,30.14,2.0,SSE,3.5,-,0.07,Rain,Heavy Rain,150,2013-01-15 12:35:00
7:55 AM,43.7,42.3,95,30.14,1.8,Calm,Calm,-,0.12,Rain,Heavy Rain,0,2013-01-15 12:55:00
8:15 AM,43.7,42.4,95,30.16,7.0,Calm,Calm,-,0.02,Rain,Rain,0,2013-01-15 13:15:00
8:35 AM,43.9,42.4,95,30.16,2.0,Calm,Calm,-,0.07,Rain,Rain,0,2013-01-15 13:35:00
8:55 AM,43.9,42.6,95,30.16,1.5,Calm,Calm,-,0.11,Rain,Rain,0,2013-01-15 13:55:00
9:15 AM,43.7,42.4,95,30.17,4.0,Calm,Calm,-,0.02,Rain,Rain,0,2013-01-15 14:15:00
9:35 AM,44.2,42.8,95,30.16,4.0,Calm,Calm,-,0.04,Rain,Rain,0,2013-01-15 14:35:00
9:55 AM,44.1,42.6,95,30.16,0.8,Calm,Calm,-,0.05,Rain,Light Rain,0,2013-01-15 14:55:00
10:15 AM,44.1,42.8,95,30.16,1.0,Calm,Calm,-,0.01,Rain,Light Rain,0,2013-01-15 15:15:00
10:35 AM,43.9,42.6,95,30.16,4.0,Calm,Calm,-,0.01,Rain,Light Rain,0,2013-01-15 15:35:00
10:55 AM,44.4,42.8,94,30.15,3.0,Calm,Calm,-,0.02,Rain,Rain,0,2013-01-15 15:55:00
11:15 AM,44.6,43.2,95,30.14,7.0,Calm,Calm,-,N/A,,Drizzle,0,2013-01-15 16:15:00
11:35 AM,44.4,42.8,94,30.14,10.0,Calm,Calm,-,N/A,Rain,Rain,0,2013-01-15 16:35:00
11:55 AM,44.4,43.0,95,30.13,5.0,Calm,Calm,-,N/A,Rain,Rain,0,2013-01-15 16:55:00
12:15 PM,43.9,42.4,95,30.12,4.0,Calm,Calm,-,N/A,Rain,Rain,0,2013-01-15 17:15:00
12:35 PM,43.3,42.1,95,30.12,1.5,SSE,4.6,-,N/A,,Drizzle,150,2013-01-15 17:35:00
12:55 PM,42.1,41.0,96,30.11,1.0,SE,3.5,-,0.01,Rain,Rain,140,2013-01-15 17:55:00
1:15 PM,41.7,40.3,95,30.11,1.2,SE,3.5,-,0.01,Rain,Light Rain,140,2013-01-15 18:15:00
1:35 PM,41.4,40.1,95,30.10,0.8,SSE,4.6,-,0.01,Rain,Light Rain,160,2013-01-15 18:35:00
2:15 PM,40.6,39.4,95,30.09,0.2,Calm,Calm,-,N/A,Rain,Rain,0,2013-01-15 19:15:00
2:35 PM,40.5,39.2,95,30.09,0.2,Calm,Calm,-,N/A,Rain,Light Rain,0,2013-01-15 19:35:00
2:55 PM,40.5,39.2,95,30.09,1.2,South,3.5,-,N/A,Rain,Rain,170,2013-01-15 19:55:00
3:15 PM,40.5,39.2,95,30.08,0.8,Calm,Calm,-,N/A,Rain,Rain,0,2013-01-15 20:15:00
3:35 PM,40.5,39.2,95,30.09,0.5,Calm,Calm,-,0.04,Rain,Rain,0,2013-01-15 20:35:00
4:15 PM,39.7,38.7,96,30.09,0.5,SSE,3.5,-,0.08,,Overcast,160,2013-01-15 21:15:00
4:35 PM,39.4,38.3,96,30.09,1.0,Calm,Calm,-,0.12,Rain,Heavy Rain,0,2013-01-15 21:35:00
4:55 PM,39.2,38.1,96,30.09,0.8,Calm,Calm,-,0.18,Rain,Light Rain,0,2013-01-15 21:55:00
5:15 PM,38.7,37.6,96,30.08,1.0,SSE,3.5,-,0.04,Rain,Rain,160,2013-01-15 22:15:00
5:35 PM,38.8,37.8,96,30.08,1.0,Calm,Calm,-,0.05,Rain,Rain,0,2013-01-15 22:35:00
6:15 PM,38.7,37.6,96,30.08,2.0,Calm,Calm,-,0.02,Rain,Rain,0,2013-01-15 23:15:00
6:35 PM,38.8,37.8,96,30.11,0.8,Calm,Calm,-,0.11,Rain,Light Rain,0,2013-01-15 23:35:00
6:55 PM,38.3,37.4,97,30.09,1.0,SE,3.5,-,0.15,Rain,Rain,140,2013-01-15 23:55:00
7:15 PM,37.8,36.7,96,30.08,0.8,Calm,Calm,-,0.02,Rain,Rain,0,2013-01-16 00:15:00
7:35 PM,37.8,36.7,96,30.08,2.0,Calm,Calm,-,0.07,Rain,Light Rain,0,2013-01-16 00:35:00
7:55 PM,38.3,37.0,95,30.07,1.0,Calm,Calm,-,0.08,Rain,Light Rain,0,2013-01-16 00:55:00
8:15 PM,37.9,36.9,96,30.06,0.5,Calm,Calm,-,N/A,Rain,Rain,0,2013-01-16 01:15:00
8:35 PM,37.8,36.7,96,30.05,0.8,SE,3.5,-,N/A,Rain,Heavy Rain,140,2013-01-16 01:35:00
9:35 PM,37.4,36.1,95,30.03,0.8,SE,3.5,-,0.03,Rain,Rain,140,2013-01-16 02:35:00
9:55 PM,36.9,36.0,97,30.03,0.8,Calm,Calm,-,0.04,Rain,Rain,0,2013-01-16 02:55:00
10:15 PM,37.0,36.0,96,30.02,1.0,SE,3.5,-,0.01,Rain,Heavy Rain,140,2013-01-16 03:15:00
10:55 PM,36.9,35.8,96,30.02,0.8,SE,3.5,-,0.01,Rain,Rain,140,2013-01-16 03:55:00
11:15 PM,36.7,35.8,97,30.02,0.5,Calm,Calm,-,N/A,,Light Drizzle,0,2013-01-16 04:15:00
11:55 PM,37.4,36.3,96,30.00,0.5,Calm,Calm,-,N/A,,Drizzle,0,2013-01-16 04:55:00